Year,Month,Day,Hour,Minute,Value (Times are PST for temperature in C)
2008,05,05,00,00,10.40
2008,05,05,00,01,10.40
2008,05,05,00,02,10.40
2008,05,05,00,03,10.40
2008,05,05,00,04,10.40
2008,05,05,00,05,10.40
2008,05,05,00,06,10.30
2008,05,05,00,07,10.30
2008,05,05,00,08,10.30
2008,05,05,00,09,10.30
2008,05,05,00,10,10.30
2008,05,05,00,11,10.20
2008,05,05,00,12,10.20
2008,05,05,00,13,10.20
2008,05,05,00,14,10.20
2008,05,05,00,15,10.10
2008,05,05,00,16,10.10
2008,05,05,07,02,7.50
2008,05,05,07,03,7.50
2008,05,05,07,04,7.50
2008,05,05,07,05,7.50
2008,05,05,07,06,7.60
2008,05,05,07,07,7.60
2008,05,05,07,08,7.60
2008,05,05,07,09,7.60
2008,05,05,07,10,7.60
2008,05,05,07,11,7.60
2008,05,05,07,12,7.60
2008,05,05,07,13,7.60
2008,05,05,07,14,7.60
2008,05,05,07,15,7.60
2008,05,05,07,16,7.70
2008,05,05,07,17,7.70
2008,05,05,07,18,7.70
2008,05,05,07,19,7.70
2008,05,05,07,20,7.70
2008,05,05,07,21,7.80
2008,05,05,07,22,7.80
2008,05,05,07,23,7.80
2008,05,05,07,24,7.80
2008,05,05,07,25,7.80
2008,05,05,07,26,7.80
2008,05,05,07,27,7.80
2008,05,05,07,28,7.80
2008,05,05,07,29,7.90
2008,05,05,07,30,7.90
2008,05,05,07,31,7.90
2008,05,05,07,32,8.00
2008,05,05,07,33,8.00
2008,05,05,07,34,8.00
2008,05,05,07,35,8.10
2008,05,05,07,36,8.10
2008,05,05,07,37,8.20
2008,05,05,07,38,8.20
2008,05,05,07,39,8.20
2008,05,05,07,40,8.30
2008,05,05,07,41,8.30
2008,05,05,07,42,8.30
2008,05,05,07,43,8.40
2008,05,05,07,44,8.40
2008,05,05,07,45,8.50
2008,05,05,07,46,8.50
2008,05,05,07,47,8.60
2008,05,05,07,48,8.60
2008,05,05,07,49,8.60
2008,05,05,07,50,8.70
2008,05,05,07,51,8.70
2008,05,05,07,52,8.70
2008,05,05,07,53,8.70
2008,05,05,07,54,8.80
2008,05,05,07,55,8.80
2008,05,05,07,56,8.90
2008,05,05,07,57,8.90
2008,05,05,07,58,9.00
2008,05,05,07,59,9.00
2008,05,05,08,00,9.00
2008,05,05,08,01,9.10
2008,05,05,08,02,9.10
2008,05,05,08,03,9.10
2008,05,05,08,04,9.10
2008,05,05,08,05,9.10
2008,05,05,08,06,9.10
2008,05,05,08,07,9.10
2008,05,05,08,08,9.10
2008,05,05,08,09,9.10
2008,05,05,08,10,9.10
2008,05,05,08,11,9.10
2008,05,05,08,12,9.20
2008,05,05,08,13,9.20
2008,05,05,08,14,9.20
2008,05,05,08,15,9.20
2008,05,05,08,16,9.20
2008,05,05,08,17,9.20
2008,05,05,08,18,9.20
2008,05,05,08,19,9.20
2008,05,05,08,20,9.20
2008,05,05,08,21,9.30
2008,05,05,08,22,9.30
2008,05,05,08,23,9.40
2008,05,05,08,24,9.50
2008,05,05,08,25,9.50
2008,05,05,08,26,9.60
2008,05,05,08,27,9.70
2008,05,05,08,28,9.70
2008,05,05,08,29,9.80
2008,05,05,08,30,9.90
2008,05,05,08,31,10.00
2008,05,05,08,32,10.10
2008,05,05,08,33,10.10
2008,05,05,08,34,10.20
2008,05,05,08,35,10.40
2008,05,05,08,36,10.40
2008,05,05,08,37,10.50
2008,05,05,08,38,10.60
2008,05,05,08,39,10.60
2008,05,05,08,40,10.70
2008,05,05,08,41,10.80
2008,05,05,08,42,10.90
2008,05,05,08,43,11.00
2008,05,05,08,44,11.10
2008,05,05,08,45,11.20
2008,05,05,08,46,11.20
2008,05,05,08,47,11.30
2008,05,05,08,48,11.40
2008,05,05,08,49,11.50
2008,05,05,08,50,11.60
2008,05,05,08,51,11.70
2008,05,05,08,52,11.80
2008,05,05,08,53,11.80
2008,05,05,08,54,11.80
2008,05,05,08,55,11.80
2008,05,05,08,56,11.80
2008,05,05,08,57,11.90
2008,05,05,08,58,12.00
2008,05,05,08,59,12.00
2008,05,05,09,00,12.00
2008,05,05,09,01,12.00
2008,05,05,09,02,12.10
2008,05,05,09,03,12.20
2008,05,05,09,04,12.40
2008,05,05,09,05,12.50
2008,05,05,09,06,12.50
2008,05,05,09,07,12.40
2008,05,05,09,08,12.50
2008,05,05,09,09,12.60
2008,05,05,09,10,12.60
2008,05,05,09,11,12.70
2008,05,05,09,12,12.80
2008,05,05,09,13,12.80
2008,05,05,09,14,12.90
2008,05,05,09,15,12.90
2008,05,05,09,16,12.90
2008,05,05,09,17,12.70
2008,05,05,09,18,12.70
2008,05,05,09,19,12.60
2008,05,05,09,20,12.60
2008,05,05,09,21,12.70
2008,05,05,09,22,12.80
2008,05,05,09,23,12.80
2008,05,05,09,24,12.80
2008,05,05,09,25,12.80
2008,05,05,09,26,12.80
2008,05,05,09,27,12.70
2008,05,05,09,28,12.60
2008,05,05,09,29,12.50
2008,05,05,09,30,12.40
2008,05,05,09,31,12.40
2008,05,05,09,32,12.20
2008,05,05,09,33,12.10
2008,05,05,09,34,11.90
2008,05,05,09,35,11.80
2008,05,05,09,36,11.80
2008,05,05,09,37,11.80
2008,05,05,09,38,11.80
2008,05,05,09,39,11.90
2008,05,05,09,40,12.00
2008,05,05,09,41,12.00
2008,05,05,09,42,12.00
2008,05,05,09,43,12.10
2008,05,05,09,44,12.20
2008,05,05,09,45,12.30
2008,05,05,09,46,12.50
2008,05,05,09,47,12.50
2008,05,05,09,48,12.60
2008,05,05,09,49,12.50
2008,05,05,09,50,12.50
2008,05,05,09,51,12.40
2008,05,05,09,52,12.50
2008,05,05,09,53,12.60
2008,05,05,09,54,12.80
2008,05,05,09,55,12.80
2008,05,05,09,56,12.70
2008,05,05,09,57,12.60
2008,05,05,09,58,12.60
2008,05,05,09,59,12.60
2008,05,05,10,00,12.60
2008,05,05,10,01,12.70
2008,05,05,10,02,12.80
2008,05,05,10,03,13.00
2008,05,05,10,04,13.10
2008,05,05,10,05,13.10
2008,05,05,10,06,13.10
2008,05,05,10,07,13.00
2008,05,05,10,08,13.00
2008,05,05,10,09,13.00
2008,05,05,10,10,13.00
2008,05,05,10,11,13.00
2008,05,05,10,12,13.10
2008,05,05,10,13,13.20
2008,05,05,10,14,13.30
2008,05,05,10,15,13.30
2008,05,05,10,16,13.40
2008,05,05,10,17,13.40
2008,05,05,10,18,13.40
2008,05,05,10,19,13.40
2008,05,05,10,20,13.50
2008,05,05,10,21,13.50
2008,05,05,10,22,13.60
2008,05,05,10,23,13.60
2008,05,05,10,24,13.70
2008,05,05,10,25,13.70
2008,05,05,10,26,13.60
2008,05,05,10,27,13.60
2008,05,05,10,28,13.60
2008,05,05,10,29,13.60
2008,05,05,10,30,13.50
2008,05,05,10,31,13.50
2008,05,05,10,32,13.40
2008,05,05,10,33,13.30
2008,05,05,10,34,13.30
2008,05,05,10,35,13.40
2008,05,05,10,36,13.50
2008,05,05,10,37,13.50
2008,05,05,10,38,13.60
2008,05,05,10,39,13.60
2008,05,05,10,40,13.60
2008,05,05,10,41,13.70
2008,05,05,10,42,13.70
2008,05,05,10,43,13.70
2008,05,05,10,44,13.70
2008,05,05,10,45,13.70
2008,05,05,10,46,13.70
2008,05,05,10,47,13.70
2008,05,05,10,48,13.70
2008,05,05,10,49,13.70
2008,05,05,10,50,13.70
2008,05,05,10,51,13.60
2008,05,05,10,52,13.50
2008,05,05,10,53,13.50
2008,05,05,10,54,13.50
2008,05,05,10,55,13.60
2008,05,05,10,56,13.70
2008,05,05,10,57,13.70
2008,05,05,10,58,13.70
2008,05,05,10,59,13.70
2008,05,05,11,00,13.70
2008,05,05,11,01,13.80
2008,05,05,11,02,13.70
2008,05,05,11,03,13.80
2008,05,05,11,04,13.80
2008,05,05,11,05,13.90
2008,05,05,11,06,13.90
2008,05,05,11,07,14.00
2008,05,05,11,08,14.10
2008,05,05,11,09,14.20
2008,05,05,11,10,14.20
2008,05,05,11,11,14.20
2008,05,05,11,12,14.20
2008,05,05,11,13,14.30
2008,05,05,11,14,14.30
2008,05,05,11,15,14.30
2008,05,05,11,16,14.40
2008,05,05,11,17,14.40
2008,05,05,11,18,14.40
2008,05,05,11,19,14.50
2008,05,05,11,20,14.50
2008,05,05,11,21,14.60
2008,05,05,11,22,14.60
2008,05,05,11,23,14.60
2008,05,05,11,24,14.60
2008,05,05,11,25,14.50
2008,05,05,11,26,14.40
2008,05,05,11,27,14.30
2008,05,05,11,28,14.20
2008,05,05,11,29,14.10
2008,05,05,11,30,14.10
2008,05,05,11,31,14.10
2008,05,05,11,32,14.20
2008,05,05,11,33,14.20
2008,05,05,11,34,14.20
2008,05,05,11,35,14.20
2008,05,05,11,36,14.20
2008,05,05,11,37,14.20
2008,05,05,11,38,14.20
2008,05,05,11,39,14.20
2008,05,05,11,40,14.20
2008,05,05,11,41,14.20
2008,05,05,11,42,14.30
2008,05,05,11,43,14.30
2008,05,05,11,44,14.40
2008,05,05,11,45,14.40
2008,05,05,11,46,14.40
2008,05,05,11,47,14.40
2008,05,05,11,48,14.50
2008,05,05,11,49,14.50
2008,05,05,11,50,14.50
2008,05,05,11,51,14.50
2008,05,05,11,52,14.50
2008,05,05,11,53,14.50
2008,05,05,11,54,14.50
2008,05,05,11,55,14.60
2008,05,05,11,56,14.60
2008,05,05,11,57,14.60
2008,05,05,11,58,14.50
2008,05,05,11,59,14.40
2008,05,05,12,00,14.40
2008,05,05,12,01,14.50
2008,05,05,12,02,14.50
2008,05,05,12,03,14.50
2008,05,05,12,04,14.50
2008,05,05,12,05,14.50
2008,05,05,12,06,14.60
2008,05,05,12,07,14.60
2008,05,05,12,08,14.60
2008,05,05,12,09,14.60
2008,05,05,12,10,14.60
2008,05,05,12,11,14.50
2008,05,05,12,12,14.50
2008,05,05,12,13,14.50
2008,05,05,12,14,14.50
2008,05,05,12,15,14.50
2008,05,05,12,16,14.50
2008,05,05,12,17,14.50
2008,05,05,12,18,14.50
2008,05,05,12,19,14.60
2008,05,05,12,20,14.60
2008,05,05,12,21,14.60
2008,05,05,12,22,14.70
2008,05,05,12,23,14.70
2008,05,05,12,24,14.80
2008,05,05,12,25,14.70
2008,05,05,12,26,14.70
2008,05,05,12,27,14.60
2008,05,05,12,28,14.60
2008,05,05,12,29,14.60
2008,05,05,12,30,14.50
2008,05,05,12,31,14.50
2008,05,05,12,32,14.50
2008,05,05,12,33,14.50
2008,05,05,12,34,14.50
2008,05,05,12,35,14.50
2008,05,05,12,36,14.50
2008,05,05,12,37,14.60
2008,05,05,12,38,14.50
2008,05,05,12,39,14.50
2008,05,05,12,40,14.40
2008,05,05,12,41,14.30
2008,05,05,12,42,14.20
2008,05,05,12,43,14.10
2008,05,05,12,44,14.10
2008,05,05,12,45,14.10
2008,05,05,12,46,14.00
2008,05,05,12,47,14.00
2008,05,05,12,48,14.00
2008,05,05,12,49,14.00
2008,05,05,12,50,14.10
2008,05,05,12,51,14.10
2008,05,05,12,52,14.10
2008,05,05,12,53,14.10
2008,05,05,12,54,14.10
2008,05,05,12,55,14.10
2008,05,05,12,56,14.10
2008,05,05,12,57,14.10
2008,05,05,12,58,14.10
2008,05,05,12,59,14.10
2008,05,05,13,00,14.00
2008,05,05,13,01,13.90
2008,05,05,13,02,14.00
2008,05,05,13,03,14.00
2008,05,05,13,04,14.00
2008,05,05,13,05,14.10
2008,05,05,13,06,14.10
2008,05,05,13,07,14.10
2008,05,05,13,08,14.10
2008,05,05,13,09,14.10
2008,05,05,13,10,14.10
2008,05,05,13,11,14.00
2008,05,05,13,12,14.00
2008,05,05,13,13,13.90
2008,05,05,13,14,13.90
2008,05,05,13,15,13.90
2008,05,05,13,16,13.80
2008,05,05,13,17,13.70
2008,05,05,13,18,13.70
2008,05,05,13,19,13.70
2008,05,05,13,20,13.60
2008,05,05,13,21,13.60
2008,05,05,13,22,13.50
2008,05,05,13,23,13.50
2008,05,05,13,24,13.40
2008,05,05,13,25,13.30
2008,05,05,13,26,13.30
2008,05,05,13,27,13.30
2008,05,05,13,28,13.30
2008,05,05,13,29,13.30
2008,05,05,13,30,13.30
2008,05,05,13,31,13.30
2008,05,05,13,32,13.30
2008,05,05,13,33,13.30
2008,05,05,13,34,13.40
2008,05,05,13,35,13.50
2008,05,05,13,36,13.50
2008,05,05,13,37,13.60
2008,05,05,13,38,13.60
2008,05,05,13,39,13.60
2008,05,05,13,40,13.70
2008,05,05,13,41,13.70
2008,05,05,13,42,13.70
2008,05,05,13,43,13.60
2008,05,05,13,44,13.60
2008,05,05,13,45,13.60
2008,05,05,13,46,13.60
2008,05,05,13,47,13.50
2008,05,05,13,48,13.50
2008,05,05,13,49,13.50
2008,05,05,13,50,13.60
2008,05,05,13,51,13.60
2008,05,05,13,52,13.60
2008,05,05,13,53,13.50
2008,05,05,13,54,13.50
2008,05,05,13,55,13.50
2008,05,05,13,56,13.40
2008,05,05,13,57,13.40
2008,05,05,13,58,13.40
2008,05,05,13,59,13.40
2008,05,05,14,00,13.40
2008,05,05,14,01,13.40
2008,05,05,14,02,13.40
2008,05,05,14,03,13.40
2008,05,05,14,04,13.40
2008,05,05,14,05,13.40
2008,05,05,14,06,13.50
2008,05,05,14,07,13.50
2008,05,05,14,08,13.60
2008,05,05,14,09,13.70
2008,05,05,14,10,13.70
2008,05,05,14,11,13.70
2008,05,05,14,12,13.80
2008,05,05,14,13,13.80
2008,05,05,14,14,13.90
2008,05,05,14,15,14.00
2008,05,05,14,16,14.00
2008,05,05,14,17,14.10
2008,05,05,14,18,14.20
2008,05,05,14,19,14.30
2008,05,05,14,20,14.40
2008,05,05,14,21,14.40
2008,05,05,14,22,14.50
2008,05,05,14,23,14.50
2008,05,05,14,24,14.50
2008,05,05,14,25,14.50
2008,05,05,14,26,14.50
2008,05,05,14,27,14.50
2008,05,05,14,28,14.50
2008,05,05,14,29,14.50
2008,05,05,14,30,14.60
2008,05,05,14,31,14.70
2008,05,05,14,32,14.80
2008,05,05,14,33,14.80
2008,05,05,14,34,14.90
2008,05,05,14,35,15.00
2008,05,05,14,36,15.00
2008,05,05,14,37,15.00
2008,05,05,14,38,15.00
2008,05,05,14,39,14.90
2008,05,05,14,40,14.90
2008,05,05,14,41,15.00
2008,05,05,14,42,15.00
2008,05,05,14,43,15.00
2008,05,05,14,44,14.90
2008,05,05,14,45,15.00
2008,05,05,14,46,15.10
2008,05,05,14,47,15.10
2008,05,05,14,48,15.10
2008,05,05,14,49,15.20
2008,05,05,14,50,15.10
2008,05,05,14,51,15.00
2008,05,05,14,52,15.00
2008,05,05,14,53,14.90
2008,05,05,14,54,14.90
2008,05,05,14,55,15.00
2008,05,05,14,56,15.00
2008,05,05,14,57,15.10
2008,05,05,14,58,15.20
2008,05,05,14,59,15.30
2008,05,05,15,00,15.40
2008,05,05,15,01,15.40
2008,05,05,15,02,15.50
2008,05,05,15,03,15.50
2008,05,05,15,04,15.60
2008,05,05,15,05,15.70
2008,05,05,15,06,15.60
2008,05,05,15,07,15.50
2008,05,05,15,08,15.50
2008,05,05,15,09,15.40
2008,05,05,15,10,15.30
2008,05,05,15,11,15.20
2008,05,05,15,12,15.00
2008,05,05,15,13,14.90
2008,05,05,15,14,14.80
2008,05,05,15,15,14.80
2008,05,05,15,16,14.80
2008,05,05,15,17,14.70
2008,05,05,15,18,14.70
2008,05,05,15,19,14.60
2008,05,05,15,20,14.60
2008,05,05,15,21,14.60
2008,05,05,15,22,14.70
2008,05,05,15,23,14.80
2008,05,05,15,24,14.80
2008,05,05,15,25,14.90
2008,05,05,15,26,15.00
2008,05,05,15,27,15.00
2008,05,05,15,28,15.10
2008,05,05,15,29,15.20
2008,05,05,15,30,15.20
2008,05,05,15,31,15.10
2008,05,05,15,32,15.00
2008,05,05,15,33,14.90
2008,05,05,15,34,14.80
2008,05,05,15,35,14.70
2008,05,05,15,36,14.50
2008,05,05,15,37,14.50
2008,05,05,15,38,14.40
2008,05,05,15,39,14.40
2008,05,05,15,40,14.40
2008,05,05,15,41,14.40
2008,05,05,15,42,14.50
2008,05,05,15,43,14.60
2008,05,05,15,44,14.60
2008,05,05,15,45,14.60
2008,05,05,15,46,14.60
2008,05,05,15,47,14.60
2008,05,05,15,48,14.60
2008,05,05,15,49,14.80
2008,05,05,15,50,14.80
2008,05,05,15,51,14.70
2008,05,05,15,52,14.80
2008,05,05,15,53,14.90
2008,05,05,15,54,15.00
2008,05,05,15,55,15.10
2008,05,05,15,56,15.10
2008,05,05,15,57,15.00
2008,05,05,15,58,15.00
2008,05,05,15,59,15.00
2008,05,05,16,00,15.00
2008,05,05,16,01,15.00
2008,05,05,16,02,15.00
2008,05,05,16,03,15.00
2008,05,05,16,04,15.10
2008,05,05,16,05,15.20
2008,05,05,16,06,15.30
2008,05,05,16,07,15.30
2008,05,05,16,08,15.40
2008,05,05,16,09,15.50
2008,05,05,16,10,15.70
2008,05,05,16,11,15.80
2008,05,05,16,12,15.80
2008,05,05,16,13,15.80
2008,05,05,16,14,15.80
2008,05,05,16,15,15.70
2008,05,05,16,16,15.60
2008,05,05,16,17,15.60
2008,05,05,16,18,15.80
2008,05,05,16,19,15.80
2008,05,05,16,20,15.80
2008,05,05,16,21,15.80
2008,05,05,16,22,15.80
2008,05,05,16,23,15.80
2008,05,05,16,24,15.80
2008,05,05,16,25,15.80
2008,05,05,16,26,15.70
2008,05,05,16,27,15.80
2008,05,05,16,28,15.80
2008,05,05,16,29,15.80
2008,05,05,16,30,15.80
2008,05,05,16,31,16.00
2008,05,05,16,32,16.10
2008,05,05,16,33,16.10
2008,05,05,16,34,16.10
2008,05,05,16,35,16.10
2008,05,05,16,36,16.10
2008,05,05,16,37,16.10
2008,05,05,16,38,16.10
2008,05,05,16,39,16.00
2008,05,05,16,40,15.90
2008,05,05,16,41,16.00
2008,05,05,16,42,16.10
2008,05,05,16,43,16.10
2008,05,05,16,44,16.10
2008,05,05,16,45,16.10
2008,05,05,16,46,16.10
2008,05,05,16,47,16.10
2008,05,05,16,48,16.20
2008,05,05,16,49,16.20
2008,05,05,16,50,16.10
2008,05,05,16,51,16.10
2008,05,05,16,52,16.10
2008,05,05,16,53,16.10
2008,05,05,16,54,16.10
2008,05,05,16,55,16.20
2008,05,05,16,56,16.30
2008,05,05,16,57,16.40
2008,05,05,16,58,16.40
2008,05,05,16,59,16.40
2008,05,05,17,00,16.40
2008,05,05,17,01,16.50
2008,05,05,17,02,16.50
2008,05,05,17,03,16.40
2008,05,05,17,04,16.40
2008,05,05,17,05,16.50
2008,05,05,17,06,16.60
2008,05,05,17,07,16.60
2008,05,05,17,08,16.60
2008,05,05,17,09,16.60
2008,05,05,17,10,16.60
2008,05,05,17,11,16.60
2008,05,05,17,12,16.60
2008,05,05,17,13,16.70
2008,05,05,17,14,16.60
2008,05,05,17,15,16.60
2008,05,05,17,16,16.60
2008,05,05,17,17,16.60
2008,05,05,17,18,16.70
2008,05,05,17,19,16.70
2008,05,05,17,20,16.80
2008,05,05,17,21,16.80
2008,05,05,17,22,16.80
2008,05,05,17,23,16.80
2008,05,05,17,24,16.90
2008,05,05,17,25,16.80
2008,05,05,17,26,16.80
2008,05,05,17,27,16.90
2008,05,05,17,28,16.90
2008,05,05,17,29,16.90
2008,05,05,17,30,16.90
2008,05,05,17,31,16.90
2008,05,05,17,32,16.90
2008,05,05,17,33,16.90
2008,05,05,17,34,16.90
2008,05,05,17,35,16.90
2008,05,05,17,36,17.00
2008,05,05,17,37,17.10
2008,05,05,17,38,17.20
2008,05,05,17,39,17.20
2008,05,05,17,40,17.20
2008,05,05,17,41,17.20
2008,05,05,17,42,17.20
2008,05,05,17,43,17.20
2008,05,05,17,44,17.20
2008,05,05,17,45,17.20
2008,05,05,17,46,17.20
2008,05,05,17,47,17.10
2008,05,05,17,48,17.10
2008,05,05,17,49,17.10
2008,05,05,17,50,17.00
2008,05,05,17,51,17.00
2008,05,05,17,52,17.00
2008,05,05,17,53,17.00
2008,05,05,17,54,17.00
2008,05,05,17,55,17.00
2008,05,05,17,56,17.00
2008,05,05,17,57,16.90
2008,05,05,17,58,16.80
2008,05,05,17,59,16.80
2008,05,05,18,00,16.70
2008,05,05,18,01,16.70
2008,05,05,18,02,16.60
2008,05,05,18,03,16.60
2008,05,05,18,04,16.70
2008,05,05,18,05,16.70
2008,05,05,18,06,16.70
2008,05,05,18,07,16.70
2008,05,05,18,08,16.70
2008,05,05,18,09,16.60
2008,05,05,18,10,16.60
2008,05,05,18,11,16.60
2008,05,05,18,12,16.60
2008,05,05,18,13,16.60
2008,05,05,18,14,16.50
2008,05,05,18,15,16.40
2008,05,05,18,16,16.40
2008,05,05,18,17,16.40
2008,05,05,18,18,16.40
2008,05,05,18,19,16.40
2008,05,05,18,20,16.40
2008,05,05,18,21,16.40
2008,05,05,18,22,16.40
2008,05,05,18,23,16.40
2008,05,05,18,24,16.40
2008,05,05,18,25,16.40
2008,05,05,18,26,16.40
2008,05,05,18,27,16.40
2008,05,05,18,28,16.40
2008,05,05,18,29,16.30
2008,05,05,18,30,16.30
2008,05,05,18,31,16.20
2008,05,05,18,32,16.20
2008,05,05,18,33,16.10
2008,05,05,18,34,16.10
2008,05,05,18,35,16.10
2008,05,05,18,36,16.10
2008,05,05,18,37,16.20
2008,05,05,18,38,16.20
2008,05,05,18,39,16.20
2008,05,05,18,40,16.10
2008,05,05,18,41,16.10
2008,05,05,18,42,16.00
2008,05,05,18,43,15.90
2008,05,05,18,44,15.90
2008,05,05,18,45,15.90
2008,05,05,18,46,15.90
2008,05,05,18,47,15.90
2008,05,05,18,48,15.90
2008,05,05,18,49,15.90
2008,05,05,18,50,15.90
2008,05,05,18,51,15.90
2008,05,05,18,52,15.90
2008,05,05,18,53,15.90
2008,05,05,18,54,15.80
2008,05,05,18,55,15.80
2008,05,05,18,56,15.80
2008,05,05,18,57,15.80
2008,05,05,18,58,15.80
2008,05,05,18,59,15.80
2008,05,05,19,00,15.80
2008,05,05,19,01,15.80
2008,05,05,19,02,15.80
2008,05,05,19,03,15.80
2008,05,05,19,04,15.70
2008,05,05,19,05,15.60
2008,05,05,19,06,15.60
2008,05,05,19,07,15.60
2008,05,05,19,08,15.60
2008,05,05,19,09,15.60
2008,05,05,19,10,15.60
2008,05,05,19,11,15.60
2008,05,05,19,12,15.60
2008,05,05,19,13,15.60
2008,05,05,19,14,15.50
2008,05,05,19,15,15.50
2008,05,05,19,16,15.40
2008,05,05,19,17,15.40
2008,05,05,19,18,15.40
2008,05,05,19,19,15.40
2008,05,05,19,20,15.40
2008,05,05,19,21,15.40
2008,05,05,19,22,15.30
2008,05,05,19,23,15.30
2008,05,05,19,24,15.30
2008,05,05,19,25,15.30
2008,05,05,19,26,15.20
2008,05,05,19,27,15.10
2008,05,05,19,28,15.00
2008,05,05,19,29,15.00
2008,05,05,19,30,15.00
2008,05,05,19,31,14.90
2008,05,05,19,32,14.90
2008,05,05,19,33,14.90
2008,05,05,19,34,14.80
2008,05,05,19,35,14.80
2008,05,05,19,36,14.80
2008,05,05,19,37,14.70
2008,05,05,19,38,14.70
2008,05,05,19,39,14.60
2008,05,05,19,40,14.60
2008,05,05,19,41,14.60
2008,05,05,19,42,14.50
2008,05,05,19,43,14.50
2008,05,05,19,44,14.50
2008,05,05,19,45,14.40
2008,05,05,19,46,14.40
2008,05,05,19,47,14.30
2008,05,05,19,48,14.20
2008,05,05,19,49,14.20
2008,05,05,19,50,14.20
2008,05,05,19,51,14.20
2008,05,05,19,52,14.10
2008,05,05,19,53,14.00
2008,05,05,19,54,14.00
2008,05,05,19,55,13.90
2008,05,05,19,56,13.80
2008,05,05,19,57,13.70
2008,05,05,19,58,13.70
2008,05,05,19,59,13.60
2008,05,05,20,00,13.60
2008,05,05,20,01,13.50
2008,05,05,20,02,13.40
2008,05,05,20,03,13.40
2008,05,05,20,04,13.30
2008,05,05,20,05,13.30
2008,05,05,20,06,13.20
2008,05,05,20,07,13.20
2008,05,05,20,08,13.10
2008,05,05,20,09,13.10
2008,05,05,20,10,13.00
2008,05,05,20,11,13.00
2008,05,05,20,12,13.00
2008,05,05,20,13,12.90
2008,05,05,20,14,12.90
2008,05,05,20,15,12.80
2008,05,05,20,16,12.80
2008,05,05,20,17,12.80
2008,05,05,20,18,12.80
2008,05,05,20,19,12.80
2008,05,05,20,20,12.70
2008,05,05,20,21,12.60
2008,05,05,20,22,12.40
2008,05,05,20,23,12.30
2008,05,05,20,24,12.20
2008,05,05,20,25,12.10
2008,05,05,20,26,12.00
2008,05,05,20,27,12.00
2008,05,05,20,28,11.90
2008,05,05,20,29,11.80
2008,05,05,20,30,11.70
2008,05,05,20,31,11.50
2008,05,05,20,32,11.40
2008,05,05,20,33,11.30
2008,05,05,20,34,11.20
2008,05,05,20,35,11.20
2008,05,05,20,36,11.10
2008,05,05,20,37,11.10
2008,05,05,20,38,10.90
2008,05,05,20,39,10.90
2008,05,05,20,40,10.80
2008,05,05,20,41,10.70
2008,05,05,20,42,10.60
2008,05,05,20,43,10.60
2008,05,05,20,44,10.50
2008,05,05,20,45,10.40
2008,05,05,20,46,10.30
2008,05,05,20,47,10.30
2008,05,05,20,48,10.20
2008,05,05,20,49,10.10
2008,05,05,20,50,10.10
2008,05,05,20,51,10.00
2008,05,05,20,52,9.90
2008,05,05,20,53,9.90
2008,05,05,20,54,9.90
2008,05,05,20,55,9.90
2008,05,05,20,56,9.90
2008,05,05,20,57,9.90
2008,05,05,20,58,9.90
2008,05,05,20,59,9.80
2008,05,05,21,00,9.80
2008,05,05,21,01,9.80
2008,05,05,21,02,9.70
2008,05,05,21,03,9.70
2008,05,05,21,04,9.70
2008,05,05,21,05,9.70
2008,05,05,21,06,9.70
2008,05,05,21,07,9.70
2008,05,05,21,08,9.70
2008,05,05,21,09,9.70
2008,05,05,21,10,9.70
2008,05,05,21,11,9.70
2008,05,05,21,12,9.70
2008,05,05,21,13,9.70
2008,05,05,21,14,9.60
2008,05,05,21,15,9.60
2008,05,05,21,16,9.60
2008,05,05,21,17,9.50
2008,05,05,21,18,9.50
2008,05,05,21,19,9.40
2008,05,05,21,20,9.40
2008,05,05,21,21,9.40
2008,05,05,21,22,9.40
2008,05,05,21,23,9.30
2008,05,05,21,24,9.30
2008,05,05,21,25,9.30
2008,05,05,21,26,9.30
2008,05,05,21,27,9.20
2008,05,05,21,28,9.20
2008,05,05,21,29,9.20
2008,05,05,21,30,9.20
2008,05,05,21,31,9.20
2008,05,05,21,32,9.20
2008,05,05,21,33,9.10
2008,05,05,21,34,9.10
2008,05,05,21,35,9.10
2008,05,05,21,36,9.10
2008,05,05,21,37,9.00
2008,05,05,21,38,9.00
2008,05,05,21,39,9.00
2008,05,05,21,40,8.90
2008,05,05,21,41,8.90
2008,05,05,21,42,8.90
2008,05,05,21,43,8.90
2008,05,05,21,44,8.80
2008,05,05,21,45,8.80
2008,05,05,21,46,8.80
2008,05,05,21,47,8.80
2008,05,05,21,48,8.80
2008,05,05,21,49,8.70
2008,05,05,21,50,8.70
2008,05,05,21,51,8.70
2008,05,05,21,52,8.70
2008,05,05,21,53,8.70
2008,05,05,21,54,8.70
2008,05,05,21,55,8.70
2008,05,05,21,56,8.70
2008,05,05,21,57,8.70
2008,05,05,21,58,8.70
2008,05,05,21,59,8.70
2008,05,05,22,00,8.70
2008,05,05,22,01,8.70
2008,05,05,22,02,8.70
2008,05,05,22,03,8.70
2008,05,05,22,04,8.70
2008,05,05,22,05,8.70
2008,05,05,22,06,8.70
2008,05,05,22,07,8.70
2008,05,05,22,08,8.70
2008,05,05,22,09,8.70
2008,05,05,22,10,8.70
2008,05,05,22,11,8.70
2008,05,05,22,12,8.70
2008,05,05,22,13,8.70
2008,05,05,22,14,8.70
2008,05,05,22,15,8.70
2008,05,05,22,16,8.70
2008,05,05,22,17,8.70
2008,05,05,22,18,8.70
2008,05,05,22,19,8.70
2008,05,05,22,20,8.70
2008,05,05,22,21,8.70
2008,05,05,22,22,8.70
2008,05,05,22,23,8.70
2008,05,05,22,24,8.70
2008,05,05,22,25,8.70
2008,05,05,22,26,8.70
2008,05,05,22,27,8.70
2008,05,05,22,28,8.60
2008,05,05,22,29,8.60
2008,05,05,22,30,8.60
2008,05,05,22,31,8.60
2008,05,05,22,32,8.60
2008,05,05,22,33,8.60
2008,05,05,22,34,8.60
2008,05,05,22,35,8.60
2008,05,05,22,36,8.60
2008,05,05,22,37,8.60
2008,05,05,22,38,8.60
2008,05,05,22,39,8.60
2008,05,05,22,40,8.60
2008,05,05,22,41,8.60
2008,05,05,22,42,8.50
2008,05,05,22,43,8.50
2008,05,05,22,44,8.50
2008,05,05,22,45,8.50
2008,05,05,22,46,8.50
2008,05,05,22,47,8.50
2008,05,05,22,48,8.40
2008,05,05,22,49,8.40
2008,05,05,22,50,8.40
2008,05,05,22,51,8.40
2008,05,05,22,52,8.40
2008,05,05,22,53,8.30
2008,05,05,22,54,8.30
2008,05,05,22,55,8.30
2008,05,05,22,56,8.30
2008,05,05,22,57,8.30
2008,05,05,22,58,8.20
2008,05,05,22,59,8.20
2008,05,05,23,00,8.20
2008,05,05,23,01,8.20
2008,05,05,23,02,8.20
2008,05,05,23,03,8.20
2008,05,05,23,04,8.20
2008,05,05,23,05,8.20
2008,05,05,23,06,8.20
2008,05,05,23,07,8.20
2008,05,05,23,08,8.20
2008,05,05,23,09,8.20
2008,05,05,23,10,8.20
2008,05,05,23,11,8.20
2008,05,05,23,12,8.10
2008,05,05,23,13,8.10
2008,05,05,23,14,8.10
2008,05,05,23,15,8.10
2008,05,05,23,16,8.10
2008,05,05,23,17,8.10
2008,05,05,23,18,8.10
2008,05,05,23,19,8.00
2008,05,05,23,20,8.00
2008,05,05,23,21,8.00
2008,05,05,23,22,8.00
2008,05,05,23,23,8.00
2008,05,05,23,24,7.90
2008,05,05,23,25,7.90
2008,05,05,23,26,7.90
2008,05,05,23,27,7.90
2008,05,05,23,28,7.90
2008,05,05,23,29,7.90
2008,05,05,23,30,7.90
2008,05,05,23,31,7.90
2008,05,05,23,32,7.90
2008,05,05,23,33,7.80
2008,05,05,23,34,7.80
2008,05,05,23,35,7.80
2008,05,05,23,36,7.80
2008,05,05,23,37,7.80
2008,05,05,23,38,7.80
2008,05,05,23,39,7.80
2008,05,05,23,40,7.80
2008,05,05,23,41,7.80
2008,05,05,23,42,7.80
2008,05,05,23,43,7.80
2008,05,05,23,44,7.80
2008,05,05,23,45,7.80
2008,05,05,23,46,7.80
2008,05,05,23,47,7.80
2008,05,05,23,48,7.80
2008,05,05,23,49,7.80
2008,05,05,23,50,7.80
2008,05,05,23,51,7.80
2008,05,05,23,52,7.80
2008,05,05,23,53,7.80
2008,05,05,23,54,7.80
2008,05,05,23,55,7.80
2008,05,05,23,56,7.80
2008,05,05,23,57,7.80
2008,05,05,23,58,7.80
2008,05,05,23,59,7.80
